Temperature
20 21 21 21 20 20 20 20 20 20 20 20 20 20 20 20 20 20 20 20 20 19 19 19 19 19 19 19 19 19 19 19 19 19 19 19 19 19 19 18 18 18 19
21 21 21 21 20 20 20 20 20 20 20 19 19 19 19 19 19 19 19 19 19 19 19 19 19 19 19 19 19 19 19 19 19 19 19 19 19 19 19 18 18 18 18
21 21 21 21 21 20 20 20 20 20 20 19 19 19 19 19 19 19 19 19 19 19 19 19 19 19 19 19 19 19 19 19 19 18 18 18 19 19 19 19 19 19 19
21 21 21 21 21 20 20 20 20 20 20 20 19 19 19 19 19 19 19 19 19 19 19 19 19 19 19 19 19 19 19 19 18 18 18 18 19 19 19 19 19 19 18
20 20 21 21 20 20 20 20 20 20 20 20 20 19 19 19 19 19 19 19 19 19 19 19 19 19 19 19 19 19 19 19 18 18 18 18 19 19 19 19 19 18 18
20 20 21 20 20 20 20 20 20 20 20 20 20 19 19 19 19 19 19 19 19 19 19 19 19 19 19 19 19 19 19 18 18 18 18 18 19 19 19 19 19 18 18
20 20 21 20 20 20 20 20 20 20 20 20 19 19 19 19 19 19 19 19 19 19 19 19 19 19 18 18 18 19 18 18 18 18 18 18 19 19 19 19 18 18 18
21 20 20 20 20 20 20 20 19 19 19 19 19 19 19 19 19 19 19 19 19 19 19 19 19 19 18 18 18 18 18 18 18 18 18 18 18 19 19 19 18 18 18
21 20 20 20 20 20 20 20 20 19 19 19 19 19 19 19 19 19 19 19 19 19 19 19 19 19 18 18 18 18 18 18 18 18 18 18 18 19 19 18 18 18 18
21 21 20 20 20 20 20 20 19 19 19 19 19 19 19 19 19 19 19 19 19 19 19 19 19 19 18 18 18 18 18 18 18 18 18 18 18 18 18 18 18 18 18
21 20 20 20 19 19 19 19 19 19 19 19 19 19 19 19 19 19 19 19 19 19 19 19 19 19 18 18 18 18 18 18 18 18 18 18 18 18 18 18 18 18 18
20 20 20 20 19 19 19 19 19 19 19 19 19 19 19 19 18 18 18 18 18 19 19 19 19 19 18 18 18 18 18 18 18 18 18 18 18 18 18 18 18 18 18
19 19 20 20 20 20 19 19 19 19 19 19 19 18 18 18 18 18 18 18 18 19 19 19 19 19 19 18 18 19 19 18 18 18 18 18 18 18 18 18 18 18 18
18 19 19 19 19 20 20 19 19 19 19 19 19 18 18 18 18 18 18 18 18 19 19 18 19 19 19 18 19 19 19 19 19 19 18 18 18 18 18 18 18 18 18
18 18 18 18 19 19 19 19 19 19 19 19 18 18 18 18 18 18 18 18 18 18 18 18 18 18 19 19 19 19 19 19 19 19 19 18 18 18 18 18 18 18 18
18 18 18 18 18 18 19 19 19 19 19 19 19 18 18 18 18 18 18 18 18 18 18 18 18 19 19 20 20 20 20 19 19 19 19 18 18 18 18 18 18 18 17
17 17 17 17 17 18 18 18 18 18 18 18 19 19 18 18 18 18 18 18 18 18 18 18 19 19 19 19 19 20 20 19 19 19 19 18 18 18 18 18 18 17 17
17 17 17 17 17 17 17 17 18 18 18 18 18 18 18 18 18 18 18 19 18 18 18 18 19 19 19 19 19 19 19 19 19 19 19 18 18 18 18 18 18 18 17
16 16 16 16 16 16 16 16 17 17 17 18 18 18 18 18 18 18 18 18 18 18 18 18 18 19 19 19 19 19 19 19 19 19 19 19 18 18 18 18 18 18 17
16 15 15 15 15 15 15 16 16 16 17 17 17 18 18 18 18 18 18 18 18 18 18 18 18 18 18 19 19 19 19 19 19 19 19 19 19 18 18 18 18 18 17
15 15 14 15 15 15 15 15 15 16 16 16 17 17 17 18 18 18 18 18 18 18 18 18 18 18 18 18 18 19 19 19 19 19 19 19 19 19 18 18 18 18 17
14 14 14 14 14 14 14 14 14 15 15 16 16 16 17 17 17 17 17 18 18 18 18 18 18 17 18 18 18 18 18 18 19 19 19 19 19 19 18 18 18 18 17
13 13 13 13 13 14 14 14 14 14 15 15 15 16 16 16 17 17 17 17 17 17 17 18 17 17 17 17 17 17 18 18 18 18 18 18 18 19 18 18 18 18 17
13 13 13 13 13 13 13 14 14 14 14 14 15 15 15 16 16 17 17 17 17 17 17 17 17 17 17 17 17 17 17 17 18 18 18 18 18 18 18 18 18 18 17
13 13 13 13 13 13 13 13 13 14 14 14 14 15 15 15 16 16 16 16 17 17 17 17 17 17 17 17 17 17 17 17 17 17 18 18 18 18 18 18 18 18 17
13 13 12 12 13 13 13 13 13 13 13 14 14 14 15 15 15 16 16 16 16 17 17 17 17 17 17 17 16 16 17 16 17 17 17 17 17 17 18 18 18 18 17
Wind_Speed
13 15 14 13 11 11 10 9 9 9 8 7 7 6 6 5 5 4 4 4 4 4 4 4 5 5 5 6 6 7 8 7 7 7 8 10 10 10 10 10 8 11 11
16 17 15 13 12 11 10 10 9 8 8 7 7 6 6 5 5 4 4 3 3 3 3 3 3 4 4 5 5 6 6 6 5 4 6 9 10 10 11 13 13 10 10
17 17 15 13 12 11 10 10 9 8 8 8 7 6 6 5 5 4 3 3 2 2 2 2 3 3 3 3 4 4 4 4 3 3 2 6 10 10 10 11 11 10 9
16 16 15 14 12 11 10 9 9 8 8 8 7 7 6 5 5 4 3 2 2 2 2 2 2 2 2 2 3 3 3 3 4 5 4 10 10 10 9 10 9 9 8
14 15 16 14 12 10 9 9 8 8 8 7 7 6 6 5 5 4 3 2 2 1 1 2 2 2 2 2 2 2 1 2 5 4 9 13 11 9 9 9 9 8 8
14 16 15 13 11 10 8 8 7 7 7 7 6 6 6 5 5 4 4 3 2 1 1 2 2 2 2 1 1 1 1 3 6 3 9 12 10 8 9 8 8 8 8
14 16 15 13 11 9 8 8 7 7 7 7 6 6 6 6 5 5 4 3 3 2 1 1 2 2 2 2 2 2 3 4 5 1 8 12 10 8 8 8 8 8 8
13 15 15 13 11 10 9 8 8 8 7 7 7 7 7 7 6 6 5 4 3 3 2 2 2 3 3 3 3 3 4 6 3 3 10 12 9 8 7 7 7 7 7
9 12 14 14 13 12 11 10 10 9 9 8 8 8 8 8 8 7 7 6 5 4 4 3 4 4 4 4 4 4 5 6 6 3 10 11 9 7 6 6 6 6 7
5 6 7 11 13 14 14 14 13 12 11 10 10 10 10 9 9 10 9 9 7 6 6 5 5 5 5 5 5 5 6 7 8 4 11 11 9 7 6 5 5 6 6
9 7 5 3 3 7 12 15 15 14 13 12 11 12 11 11 13 13 13 13 10 9 7 7 7 7 7 8 8 8 8 10 9 7 12 12 10 7 6 5 5 5 6
10 10 9 8 5 3 1 7 12 11 12 13 12 13 13 13 13 14 15 16 13 11 10 9 9 9 9 10 11 11 10 13 8 9 12 13 10 7 6 5 5 5 5
9 9 9 9 8 7 4 2 2 3 7 10 12 13 13 13 11 11 11 13 13 12 11 11 11 11 12 12 11 12 13 11 7 10 13 12 9 7 6 6 6 6 5
7 8 8 9 7 7 6 4 1 0 2 4 7 10 10 7 6 7 8 12 12 12 11 11 10 14 15 15 14 13 11 6 7 13 13 13 9 7 6 6 6 6 6
4 5 5 6 7 6 5 4 4 1 2 4 5 7 10 6 7 5 5 8 11 12 10 7 9 9 9 8 10 9 7 7 10 14 13 13 11 8 7 7 7 6 6
6 4 3 4 4 4 4 4 4 4 4 3 3 7 9 8 5 4 4 3 5 8 9 8 6 5 3 3 3 3 5 7 8 15 15 14 13 11 9 7 7 7 6
8 7 5 4 2 3 4 4 4 5 5 3 4 7 7 7 7 5 5 4 4 5 7 7 7 5 4 3 2 2 2 4 4 10 16 14 13 13 11 9 8 7 7
9 8 7 7 5 4 3 4 4 5 5 4 5 6 7 6 7 5 5 4 4 4 3 4 3 2 3 3 3 4 3 3 3 5 12 15 15 13 13 12 10 8 7
10 9 8 7 7 6 4 3 4 4 4 5 5 5 7 7 7 5 5 4 4 3 3 2 3 2 3 3 4 4 4 5 5 5 6 10 15 16 15 14 13 10 9
11 10 9 8 7 6 4 5 4 4 4 4 4 5 7 7 7 5 5 6 4 3 3 2 3 3 2 3 4 4 4 4 5 5 4 5 11 15 18 16 14 12 11
11 11 10 9 8 6 4 5 5 5 5 5 4 6 7 7 8 6 6 7 6 5 5 4 3 4 3 2 2 1 1 3 4 5 4 3 5 9 17 18 16 14 12
12 11 11 10 9 8 6 5 5 6 6 6 5 4 6 7 8 7 8 7 7 6 7 6 5 4 3 3 2 2 1 2 3 4 4 3 3 5 8 15 16 17 16
12 12 11 10 10 9 9 6 6 5 5 5 5 5 5 6 6 6 7 7 8 8 8 8 8 8 5 3 2 3 4 4 2 2 4 4 3 2 4 5 10 16 18
12 12 12 11 11 10 9 7 8 6 6 6 6 5 6 5 4 5 6 7 7 7 7 8 9 7 7 5 3 2 2 3 3 2 2 2 4 4 3 3 4 10 15
11 10 10 10 10 10 10 9 7 7 6 6 6 6 5 4 4 4 5 6 6 6 7 8 8 9 8 7 5 3 2 1 1 2 2 1 1 1 0 1 1 4 11
9 9 9 10 10 10 10 10 9 9 9 8 7 5 4 3 3 2 3 4 5 5 7 8 8 10 9 9 7 5 5 4 4 3 3 2 1 1 2 2 1 2 5
Wind_Direction
123 123 129 122 115 110 110 120 128 132 136 138 136 135 130 121 108 94 83 73 67 62 57 53 52 58 63 60 54 51 51 53 59 67 73 72 66 59 49 42 71 86 85
122 125 130 126 120 115 111 114 121 127 131 133 135 136 136 134 123 109 98 86 78 70 64 61 57 59 65 63 59 55 51 47 50 65 88 85 73 63 56 57 69 79 81
120 128 132 130 127 122 120 119 122 124 126 128 132 134 137 137 131 126 120 109 96 86 83 77 73 71 70 69 68 64 52 35 11 2 29 94 84 66 62 63 69 73 78
124 137 134 135 132 131 130 129 130 131 129 130 133 135 139 140 139 138 136 128 120 105 98 97 95 90 87 84 83 75 50 3 331 335 47 85 79 68 65 65 69 72 77
127 128 129 139 138 139 140 140 141 142 140 141 144 146 148 150 152 152 149 145 140 129 119 113 109 112 113 106 106 89 46 320 317 348 82 88 81 73 70 67 69 72 74
123 122 134 142 146 149 152 154 156 154 153 156 159 161 164 165 167 167 164 163 159 151 135 131 136 152 153 142 141 150 272 295 312 30 92 101 94 82 76 72 73 74 72
128 129 140 148 154 160 166 169 169 169 169 172 173 176 178 179 183 182 179 177 173 171 161 158 169 174 175 172 178 203 233 266 277 95 106 105 101 90 82 77 72 74 75
132 135 142 155 162 171 180 183 185 186 188 190 191 192 193 195 197 196 195 191 190 191 186 184 190 189 186 185 193 208 231 265 261 159 119 109 106 96 88 80 74 77 84
125 135 151 164 173 181 188 192 194 198 202 205 206 204 203 205 205 205 202 199 197 197 196 195 196 195 193 193 201 214 234 260 282 195 126 116 112 102 93 87 80 82 88
77 115 154 167 176 183 191 198 199 202 207 211 212 210 211 211 213 212 205 202 200 200 201 200 200 201 199 201 207 219 237 263 262 157 120 121 118 111 102 95 91 90 97
28 28 35 79 157 184 192 197 198 204 209 212 214 216 215 217 215 210 217 196 195 200 203 203 204 205 206 210 214 221 232 245 242 129 121 129 127 122 117 110 106 100 106
16 13 19 16 19 8 253 177 188 201 204 210 215 210 214 227 227 213 210 188 192 199 204 208 209 212 218 216 214 220 232 237 218 139 133 137 133 133 135 129 120 115 114
11 8 3 2 6 9 6 32 182 194 196 210 221 218 218 234 238 210 181 183 192 199 206 206 209 219 221 220 198 205 226 229 191 132 138 139 137 142 148 146 138 131 126
11 1 356 353 355 357 354 349 356 112 216 222 230 227 221 234 248 223 196 188 189 198 207 195 208 218 223 218 197 204 208 205 143 126 140 141 142 150 160 159 152 144 138
9 353 351 350 351 350 349 337 334 299 235 237 241 238 220 211 231 239 215 201 198 196 198 200 211 221 215 210 204 200 185 183 151 135 143 149 151 158 166 167 164 156 152
355 346 356 347 346 338 331 324 313 315 301 277 232 237 231 215 221 238 235 217 219 206 187 192 219 241 210 209 221 194 163 172 155 140 149 156 161 165 169 171 171 166 163
344 338 344 321 320 308 309 304 299 294 294 279 259 250 240 217 224 226 239 231 234 230 209 193 216 225 196 200 215 240 176 169 160 153 153 161 167 171 173 175 177 175 173
338 333 334 331 328 308 288 282 281 276 273 266 258 259 254 230 220 227 231 232 233 240 243 197 219 211 189 196 195 204 197 164 181 172 160 165 168 172 177 177 175 177 179
335 334 337 337 323 314 311 284 267 272 264 262 255 245 247 248 232 213 225 226 225 222 243 225 197 202 203 203 210 201 196 175 189 198 193 179 168 166 171 177 176 176 181
341 340 339 328 321 327 326 317 303 289 277 262 257 253 242 241 239 218 212 216 209 208 221 235 221 209 208 203 219 210 194 180 181 188 216 182 168 169 164 169 173 178 181
346 346 337 334 338 335 330 316 312 306 296 280 259 252 242 231 231 228 222 211 202 197 200 206 216 223 220 224 216 244 239 203 196 188 201 194 183 170 159 169 176 173 176
351 345 338 344 338 335 331 317 305 300 293 284 277 271 257 236 221 224 221 213 203 193 194 197 201 206 208 203 170 166 253 283 257 196 182 198 218 173 171 177 175 169 170
356 350 348 347 342 341 335 326 319 309 301 299 297 280 265 252 228 212 218 214 206 197 198 196 198 200 199 209 181 163 170 209 239 271 202 184 209 205 186 178 171 169 166
359 355 353 354 353 349 343 338 330 318 308 301 300 289 283 268 246 216 214 216 205 200 199 198 197 191 184 199 209 195 176 149 160 231 273 206 201 202 190 183 181 174 160
1 358 357 356 357 352 348 343 338 328 313 305 307 300 294 288 268 231 215 212 210 202 200 202 195 189 192 191 188 182 183 167 169 162 222 264 288 233 266 194 167 158 152
5 1 1 360 359 355 354 353 351 345 336 334 330 323 316 311 303 296 249 223 213 210 206 206 201 195 197 194 188 183 176 175 186 173 192 189 216 284 328 348 33 96 131
Height
1531 1532 1534 1536 1538 1540 1542 1543 1545 1547 1548 1550 1551 1552 1553 1555 1555 1556 1557 1558 1559 1559 1560 1560 1560 1561 1561 1562 1562 1562 1562 1562 1562 1562 1563 1563 1563 1563 1563 1563 1563 1563 1563
1531 1533 1535 1538 1539 1541 1543 1545 1546 1548 1549 1550 1552 1553 1554 1555 1556 1557 1558 1558 1559 1559 1560 1560 1561 1561 1562 1563 1563 1563 1563 1563 1564 1564 1564 1564 1564 1564 1564 1564 1564 1564 1564
1532 1534 1537 1539 1541 1542 1544 1546 1547 1548 1550 1551 1552 1554 1555 1556 1556 1557 1558 1559 1559 1560 1560 1561 1561 1562 1562 1563 1564 1564 1564 1565 1565 1565 1565 1566 1566 1566 1566 1565 1565 1565 1565
1534 1536 1538 1540 1542 1543 1545 1546 1548 1549 1550 1552 1553 1554 1555 1556 1557 1557 1558 1559 1559 1560 1560 1561 1561 1562 1563 1563 1564 1565 1565 1566 1566 1566 1567 1567 1567 1567 1567 1566 1566 1566 1566
1536 1538 1539 1541 1543 1544 1546 1547 1548 1550 1551 1552 1553 1554 1555 1556 1557 1558 1558 1559 1559 1560 1560 1561 1561 1562 1563 1563 1564 1565 1566 1567 1567 1567 1568 1568 1568 1568 1568 1567 1567 1567 1567
1539 1539 1541 1542 1543 1545 1546 1547 1549 1550 1551 1552 1553 1554 1555 1556 1557 1557 1558 1559 1559 1559 1560 1561 1561 1562 1563 1564 1564 1565 1566 1567 1568 1568 1568 1568 1569 1569 1569 1568 1568 1568 1568
1540 1540 1542 1543 1544 1545 1546 1547 1549 1550 1551 1552 1553 1554 1555 1556 1556 1557 1558 1558 1558 1559 1559 1560 1561 1562 1562 1563 1564 1565 1567 1568 1568 1568 1569 1569 1569 1570 1569 1569 1569 1569 1569
1541 1541 1543 1544 1545 1546 1546 1547 1548 1549 1550 1551 1552 1553 1554 1555 1556 1556 1557 1557 1558 1558 1559 1559 1560 1561 1562 1563 1564 1565 1566 1567 1568 1569 1569 1569 1570 1570 1570 1570 1570 1570 1570
1543 1543 1543 1544 1545 1546 1547 1547 1548 1549 1550 1550 1551 1552 1553 1554 1555 1556 1556 1556 1557 1557 1558 1558 1559 1560 1561 1562 1563 1565 1566 1567 1568 1569 1569 1570 1570 1570 1570 1570 1570 1570 1571
1544 1544 1544 1544 1544 1544 1545 1546 1547 1548 1549 1549 1550 1551 1552 1553 1554 1554 1555 1555 1556 1556 1557 1557 1558 1559 1560 1562 1563 1564 1566 1567 1568 1569 1569 1570 1570 1570 1570 1570 1570 1571 1571
1543 1544 1544 1544 1544 1544 1544 1545 1546 1547 1548 1548 1549 1549 1550 1551 1552 1553 1553 1554 1555 1555 1556 1556 1557 1559 1560 1561 1562 1564 1565 1566 1567 1568 1569 1570 1570 1570 1570 1570 1570 1571 1571
1543 1543 1543 1543 1543 1543 1544 1544 1544 1545 1546 1547 1547 1547 1548 1549 1550 1551 1552 1553 1553 1554 1554 1555 1557 1558 1559 1560 1562 1563 1564 1565 1567 1568 1568 1569 1569 1569 1569 1569 1570 1570 1571
1542 1542 1541 1542 1542 1542 1542 1543 1543 1544 1544 1545 1545 1545 1546 1547 1548 1549 1550 1551 1552 1552 1553 1554 1555 1557 1558 1559 1561 1563 1564 1565 1566 1567 1568 1568 1568 1568 1568 1568 1569 1570 1571
1542 1541 1540 1539 1539 1540 1540 1541 1541 1542 1542 1542 1543 1543 1543 1544 1545 1546 1547 1548 1549 1550 1551 1552 1554 1555 1557 1559 1561 1562 1564 1565 1566 1566 1567 1568 1567 1567 1566 1567 1568 1569 1570
1541 1540 1538 1538 1537 1537 1537 1537 1538 1538 1539 1539 1539 1540 1541 1541 1541 1543 1544 1545 1546 1547 1549 1551 1552 1554 1557 1559 1561 1562 1563 1565 1565 1565 1566 1567 1566 1566 1566 1566 1567 1568 1569
1542 1540 1538 1536 1535 1534 1533 1534 1534 1535 1535 1536 1536 1537 1538 1538 1538 1539 1541 1542 1544 1546 1548 1549 1551 1553 1556 1558 1560 1561 1562 1564 1565 1564 1565 1566 1566 1565 1565 1565 1566 1567 1568
1542 1540 1538 1536 1534 1532 1531 1531 1531 1531 1531 1532 1532 1534 1534 1534 1534 1536 1537 1539 1541 1543 1545 1547 1549 1551 1554 1555 1557 1559 1561 1562 1564 1563 1563 1564 1565 1565 1565 1565 1565 1566 1567
1541 1539 1537 1535 1533 1531 1529 1528 1527 1527 1527 1527 1528 1528 1529 1530 1531 1532 1533 1535 1537 1539 1541 1544 1546 1549 1551 1553 1555 1557 1558 1560 1562 1563 1563 1563 1563 1564 1564 1565 1565 1566 1567
1540 1538 1535 1533 1531 1529 1527 1525 1524 1523 1523 1523 1523 1524 1525 1526 1527 1528 1529 1531 1534 1535 1537 1540 1543 1545 1548 1550 1552 1554 1556 1558 1559 1561 1562 1562 1562 1563 1564 1564 1565 1565 1566
1538 1536 1533 1531 1529 1527 1525 1523 1521 1520 1519 1519 1519 1519 1520 1520 1522 1523 1524 1526 1529 1531 1533 1536 1538 1541 1544 1547 1550 1552 1553 1555 1557 1558 1560 1561 1561 1562 1562 1563 1564 1565 1565
1537 1534 1531 1529 1527 1524 1522 1520 1518 1516 1515 1514 1514 1514 1515 1515 1517 1519 1520 1522 1524 1526 1528 1532 1534 1537 1540 1543 1546 1548 1550 1552 1554 1556 1558 1559 1560 1561 1561 1562 1563 1564 1565
1535 1532 1529 1526 1524 1522 1519 1517 1515 1513 1511 1511 1510 1509 1510 1510 1511 1513 1515 1516 1518 1520 1523 1526 1529 1532 1535 1539 1542 1544 1546 1549 1550 1552 1554 1556 1558 1559 1560 1561 1561 1562 1564
1534 1530 1527 1524 1521 1519 1516 1514 1512 1510 1508 1507 1506 1505 1505 1505 1507 1507 1509 1510 1512 1515 1517 1520 1523 1527 1530 1533 1537 1540 1542 1544 1546 1548 1550 1552 1554 1556 1558 1559 1560 1561 1562
1533 1529 1526 1522 1519 1516 1514 1511 1509 1507 1505 1503 1502 1501 1501 1501 1502 1503 1504 1505 1507 1509 1511 1514 1517 1520 1524 1527 1531 1534 1538 1539 1542 1544 1546 1548 1550 1553 1555 1557 1558 1559 1560
1533 1529 1525 1522 1518 1515 1512 1509 1507 1505 1502 1501 1499 1498 1498 1497 1498 1498 1499 1500 1502 1504 1506 1509 1511 1514 1517 1521 1524 1528 1532 1535 1537 1539 1541 1544 1546 1548 1550 1553 1555 1557 1558
1533 1529 1525 1521 1518 1515 1512 1508 1506 1503 1500 1498 1496 1495 1494 1494 1494 1494 1495 1496 1497 1499 1501 1503 1505 1508 1511 1515 1518 1522 1525 1528 1531 1534 1537 1539 1541 1543 1546 1548 1551 1553 1554